Le nostre stazioni meteo in Italia

Pubblicità
Il mio iltempo24.it
Cozzo Spadaro, Italia (16480): Temperatura & dewpoint: 19.05.2019 08:00:00 - 25.05.2019 08:00:00 (CEST)Cozzo Spadaro, Italia (16480): velocità del vento: 19.05.2019 08:00:00 - 25.05.2019 08:00:00 (CEST)Cozzo Spadaro, Italia (16480): direzione del vento: 19.05.2019 08:00:00 - 25.05.2019 08:00:00 (CEST)Cozzo Spadaro, Italia (16480): reduced air pressure: 19.05.2019 08:00:00 - 25.05.2019 08:00:00 (CEST)Cozzo Spadaro, Italia (16480): visibility: 19.05.2019 08:00:00 - 25.05.2019 08:00:00 (CEST)Cozzo Spadaro, Italia (16480): ore di luce: 19.05.2019 08:00:00 - 25.05.2019 08:00:00 (CEST)
Data & Tempo tt [°C] td [°C] ff [km/h] ff [kn] dd ppp [hPa] vv [km] sd [min]
25.05.2019 08:00:00 - - - - - - - -
25.05.2019 07:00:00 - - - - - - - -
25.05.2019 06:00:00 - - - - - - - -
25.05.2019 05:00:00 - - - - - - - -
25.05.2019 04:00:00 - - - - - - - -
25.05.2019 03:00:00 - - - - - - - -
25.05.2019 02:00:00 - - - - - - - -
25.05.2019 01:00:00 - - - - - - - -
25.05.2019 00:00:00 - - - - - - - -
24.05.2019 23:00:00 - - - - - - - -
24.05.2019 22:00:00 - - - - - - - -
24.05.2019 21:00:00 - - - - - - - -
24.05.2019 20:00:00 18,0 18,0 11 6 OSO 1014,9 20 42
24.05.2019 19:00:00 18,8 16,8 15 8 OSO 1014,0 20 60
24.05.2019 18:00:00 19,0 15,5 13 7 SO 1014,4 20 60
24.05.2019 17:00:00 20,0 15,4 11 6 SO 1015,0 20 60
24.05.2019 16:00:00 20,8 16,8 11 6 SO 1015,3 20 60
24.05.2019 15:00:00 20,2 17,2 13 7 SO 1015,7 20 60
24.05.2019 14:00:00 20,2 16,4 15 8 SO 1016,0 20 60
24.05.2019 13:00:00 20,6 14,9 9 5 SSO 1016,0 20 60
24.05.2019 12:00:00 20,0 14,8 8 4 S 1016,0 20 60
24.05.2019 11:00:00 19,6 15,5 9 5 SSE 1016,0 20 60
24.05.2019 10:00:00 20,0 15,2 8 4 SE 1016,0 20 60
24.05.2019 09:00:00 19,6 15,0 4 2 ESE 1016,0 20 60
24.05.2019 08:00:00 18,0 14,7 2 1 NE 1015,9 20 60
24.05.2019 07:00:00 - - - - - - - -
24.05.2019 06:00:00 - - - - - - - -
24.05.2019 05:00:00 - - - - - - - -
24.05.2019 04:00:00 - - - - - - - -
24.05.2019 03:00:00 - - - - - - - -
24.05.2019 02:00:00 - - - - - - - -
24.05.2019 01:00:00 - - - - - - - -
24.05.2019 00:00:00 - - - - - - - -
23.05.2019 23:00:00 - - - - - - - -
23.05.2019 22:00:00 - - - - - - - -
23.05.2019 21:00:00 - - - - - - - -
23.05.2019 20:00:00 19,8 14,2 11 6 O 1014,9 20 0
23.05.2019 19:00:00 20,0 13,9 9 5 O 1014,7 20 42
23.05.2019 18:00:00 20,0 13,5 18 10 O 1014,8 20 60
23.05.2019 17:00:00 21,2 12,4 13 7 OSO 1015,3 20 60
23.05.2019 16:00:00 21,8 12,9 9 5 SSO 1016,0 20 60
23.05.2019 15:00:00 21,2 12,4 9 5 S 1016,0 20 60
23.05.2019 14:00:00 20,4 14,3 8 4 S 1016,9 20 60
23.05.2019 13:00:00 20,2 13,9 9 5 SSE 1017,0 20 60
23.05.2019 12:00:00 21,0 15,6 8 4 SSE 1016,9 20 60
23.05.2019 11:00:00 20,0 14,1 8 4 ESE 1016,5 20 36
23.05.2019 10:00:00 18,0 14,5 8 4 ENE 1016,2 10 0
23.05.2019 09:00:00 18,0 15,4 5 3 ONO 1016,1 10 12
23.05.2019 08:00:00 17,6 15,2 9 5 ONO 1016,1 10 42
23.05.2019 07:00:00 - - - - - - - -
23.05.2019 06:00:00 - - - - - - - -
23.05.2019 05:00:00 - - - - - - - -
23.05.2019 04:00:00 - - - - - - - -
23.05.2019 03:00:00 - - - - - - - -
23.05.2019 02:00:00 - - - - - - - -
23.05.2019 01:00:00 - - - - - - - -
23.05.2019 00:00:00 - - - - - - - -
22.05.2019 23:00:00 - - - - - - - -
22.05.2019 22:00:00 - - - - - - - -
22.05.2019 21:00:00 - - - - - - - -
22.05.2019 20:00:00 19,2 16,4 13 7 N 1015,1 20 18
22.05.2019 19:00:00 20,6 15,8 15 8 ONO 1014,3 20 54
22.05.2019 18:00:00 22,0 10,8 16 9 O 1014,9 20 60
22.05.2019 17:00:00 23,8 7,0 16 9 O 1014,9 20 60
22.05.2019 16:00:00 24,8 5,1 15 8 O 1015,0 20 60
22.05.2019 15:00:00 24,8 5,1 13 7 O 1015,4 20 60
22.05.2019 14:00:00 23,6 12,6 11 6 O 1015,9 20 60
22.05.2019 13:00:00 22,2 13,8 8 4 OSO 1016,8 20 60
22.05.2019 12:00:00 21,0 11,9 11 6 SO 1017,0 20 60
22.05.2019 11:00:00 20,0 13,9 2 1 SSO 1017,1 10 36
22.05.2019 10:00:00 19,0 14,7 4 2 S 1017,1 10 30
22.05.2019 09:00:00 19,2 14,3 2 1 SSE 1017,1 10 30
22.05.2019 08:00:00 17,0 13,5 4 2 NE 1016,9 10 0
22.05.2019 07:00:00 - - - - - - - -
22.05.2019 06:00:00 - - - - - - - -
22.05.2019 05:00:00 - - - - - - - -
22.05.2019 04:00:00 - - - - - - - -
22.05.2019 03:00:00 - - - - - - - -
22.05.2019 02:00:00 - - - - - - - -
22.05.2019 01:00:00 - - - - - - - -
22.05.2019 00:00:00 - - - - - - - -
21.05.2019 23:00:00 - - - - - - - -
21.05.2019 22:00:00 - - - - - - - -
21.05.2019 21:00:00 - - - - - - - -
21.05.2019 20:00:00 18,2 16,0 16 9 NNE 1015,7 20 0
21.05.2019 19:00:00 20,0 17,4 13 7 N 1015,2 20 36
21.05.2019 18:00:00 21,8 12,1 18 10 ONO 1015,2 20 60
21.05.2019 17:00:00 22,4 12,1 16 9 O 1015,1 20 60
21.05.2019 16:00:00 23,0 12,6 18 10 O 1015,6 20 60
21.05.2019 15:00:00 23,0 14,0 21 11 O 1015,9 20 60
21.05.2019 14:00:00 21,8 15,2 22 12 O 1016,0 20 60
21.05.2019 13:00:00 22,0 13,9 18 10 O 1016,0 20 60
21.05.2019 12:00:00 21,6 12,2 13 7 O 1016,3 20 60
21.05.2019 11:00:00 20,8 11,2 13 7 O 1016,3 20 60
21.05.2019 10:00:00 19,0 13,4 5 3 S 1016,2 20 60
21.05.2019 09:00:00 18,6 14,1 4 2 SE 1015,9 20 60
21.05.2019 08:00:00 16,4 13,5 4 2 OSO 1015,6 20 60
21.05.2019 07:00:00 - - - - - - - -
21.05.2019 06:00:00 - - - - - - - -
21.05.2019 05:00:00 - - - - - - - -
21.05.2019 04:00:00 - - - - - - - -
21.05.2019 03:00:00 - - - - - - - -
21.05.2019 02:00:00 - - - - - - - -
21.05.2019 01:00:00 - - - - - - - -
21.05.2019 00:00:00 - - - - - - - -
20.05.2019 23:00:00 - - - - - - - -
20.05.2019 22:00:00 - - - - - - - -
20.05.2019 21:00:00 - - - - - - - -
20.05.2019 20:00:00 18,8 14,5 15 8 ONO 1012,9 20 24
20.05.2019 19:00:00 19,4 15,1 16 9 O 1012,7 20 60
20.05.2019 18:00:00 20,4 14,5 18 10 O 1012,5 20 60
20.05.2019 17:00:00 23,0 13,2 18 10 O 1012,5 20 60
20.05.2019 16:00:00 23,6 10,3 21 11 O 1012,4 20 60
20.05.2019 15:00:00 24,6 7,7 18 10 O 1012,3 20 60
20.05.2019 14:00:00 22,6 9,7 16 9 ONO 1012,6 20 60
20.05.2019 13:00:00 20,6 10,7 18 10 O 1012,6 20 60
20.05.2019 12:00:00 21,4 11,7 15 8 O 1012,8 20 54
20.05.2019 11:00:00 20,0 9,3 9 5 OSO 1012,0 20 54
20.05.2019 10:00:00 20,4 11,9 8 4 SSE 1011,8 20 60
20.05.2019 09:00:00 20,2 12,9 4 2 E 1011,5 20 60
20.05.2019 08:00:00 18,0 13,1 4 2 N 1011,6 20 6
20.05.2019 07:00:00 - - - - - - - -
20.05.2019 06:00:00 - - - - - - - -
20.05.2019 05:00:00 - - - - - - - -
20.05.2019 04:00:00 - - - - - - - -
20.05.2019 03:00:00 - - - - - - - -
20.05.2019 02:00:00 - - - - - - - -
20.05.2019 01:00:00 - - - - - - - -
20.05.2019 00:00:00 - - - - - - - -
19.05.2019 23:00:00 - - - - - - - -
19.05.2019 22:00:00 - - - - - - - -
19.05.2019 21:00:00 - - - - - - - -
19.05.2019 20:00:00 18,0 14,9 11 6 NO 1009,0 10 0
19.05.2019 19:00:00 18,8 14,9 15 8 ONO 1008,4 20 18
19.05.2019 18:00:00 19,2 15,1 16 9 O 1007,9 20 42
19.05.2019 17:00:00 20,8 15,6 18 10 ONO 1007,0 20 60
19.05.2019 16:00:00 20,8 15,1 22 12 ONO 1006,9 20 60
19.05.2019 15:00:00 21,2 15,1 21 11 O 1006,8 20 60
19.05.2019 14:00:00 21,0 14,9 26 14 O 1006,8 20 60
19.05.2019 13:00:00 21,6 14,0 24 13 ONO 1006,1 20 60
19.05.2019 12:00:00 21,4 15,3 22 12 O 1005,9 20 60
19.05.2019 11:00:00 21,0 16,2 16 9 O 1006,0 10 60
19.05.2019 10:00:00 19,6 15,7 15 8 O 1006,0 10 60
19.05.2019 09:00:00 18,4 15,7 4 2 O 1006,0 10 60
19.05.2019 08:00:00 16,8 14,1 2 1 ONO 1004,3 10 18

tt = Temperatura
td = dewpoint
ff = velocità del vento
dd = direzione del vento
ppp = reduced air pressure
vv = visibility
sd = ore di luce

Stazioni seguenti

WeatherPro
AMSI
MeteoEarth